www.pogodaiklimat.ru

Погода и климат >> Архив погоды >> Россия >> Кабардино-Балкария >> Прохладный


ПОГОДА в Прохладный

  • Прогноз погоды в Прохладный
  • Монитор погоды в Прохладный
  • Климат города

АРХИВ ПОГОДЫ в Прохладный

Время (UTC), дата Ветер
(напр.,м/с)
 
Видим.   Явления Облачность Т
(С)
Тd
(С)
f
(%)
Тe
(С)
Тes
(С)
Комфортность P
(гПа)
Po
(гПа)
Тmin
(С)
Tmax
(С)
R
(мм)
R24
(мм)
S
(см)
18 12.07 ЮЗ 2 20 км 10/10 600 м
[Cb cap]
+29.9 +21.4 60 +38 +38 очень
душно
1005.1 982.9
21 12.07 ЮЗ 2 4000 м слабый ливневой дождь {гроза} 10/10 600 м
[Cb cap]
+23.5 +23.0 97 +31 +31 очень
душно
1007.9 985.2
00 13.07 Ю 3 4000 м слабый ливневой дождь {гроза} 10/10 600 м
[Cb cap]
+23.2 +22.2 94 +32 +32 очень
душно
1008.2 985.4
03 13.07 З 2 4000 м в посл. час гроза {ливн. осадки} 9/9 600 м
[Cb cap]
+21.7 +21.4 98 +28 +28 душно 1007.8 984.9 +21.7 14
06 13.07 ЮЗ 2 20 км {гроза, ливн. осадки} 8/4 600 м
[Cu med, cong Ac trans Ci fib]
+25.5 +22.2 82 +33 +38 очень
душно
1007.7 985.1
09 13.07 Ю 2 20 км 8/0
[Ac trans]
+29.7 +19.9 56 +36 +46 очень
душно
1007.3 985.0
12 13.07 Ю 2 20 км 8/0
[Cs]
+32.1 +18.1 43 +36 +46 очень
душно
1005.9 983.8
15 13.07 ЮЗ 2 20 км 10/10 600 м
[Sc]
+29.1 +18.6 53 +34 +34 очень
душно
1005.9 983.8 +32.2 0.3
18 13.07 Ю 1 20 км в посл. час гроза {ливн. осадки} 9/9 600 м
[Sc]
+23.2 +20.4 84 +30 +30 очень
душно
1007.1 984.3
21 13.07 Ю 2 4000 м дымка ясно +22.6 +21.2 92 +30 +30 очень
душно
1006.2 983.5
00 14.07 З 1 4000 м дымка ясно +21.1 +19.6 91 +26 +26 душно 1005.5 982.7
03 14.07 Ю 2 20 км 10/10 600 м
[Sc]
+22.2 +18.8 81 +28 +28 душно 1005.1 982.3 +21.0 0.3
06 14.07 ЮЗ 2 20 км {ливн. осадки} 10/10 600 м
[Cb cap]
+23.9 +20.4 81 +30 +30 очень
душно
1005.0 982.4
09 14.07 ЮЗ 1 4000 м слабый ливневой дождь 10/10 600 м
[Cb cap]
+22.1 +20.8 92 +28 +28 душно 1006.5 983.6
12 14.07 ЮВ 3 20 км {ливн. осадки} 9/9 600 м
[Cb cap]
+26.6 +20.6 70 +33 +34 очень
душно
1004.4 982.0
15 14.07 В 1 20 км 9/8 600 м
[Cb cap Ac lent]
+25.5 +18.9 67 +30 +31 душно 1003.0 980.5 +26.7 3
18 14.07 С 1 20 км 9/9 600 м
[Sc]
+22.7 +20.1 85 +29 +29 очень
душно
1003.0 980.3
21 14.07 Ю 1 4000 м дымка 10/10 600 м
[Sc]
+21.4 +20.3 93 +27 +27 душно 1003.7 980.9
00 15.07 ЮЗ 2 4000 м дымка 10/6 600 м
[Sc Ac lent]
+20.9 +20.1 95 +26 +26 душно 1003.5 980.7
03 15.07 ЮЗ 1 20 км 10/10 600 м
[Sc]
+21.3 +18.1 82 +26 +26 душно 1003.5 980.7 +20.9
06 15.07 СЗ 3 20 км 10/10 600 м
[Sc]
+24.7 +17.2 63 +29 +29 душно 1003.1 980.5
09 15.07 СЗ 3 20 км 10/3 600 м
[Cb cap Cs]
+29.1 +16.8 47 +33 +41 очень
душно
1002.4 980.1
12 15.07 З 3 20 км 9/9 600 м
[Cb cap]
+30.2 +16.5 44 +34 +35 очень
душно
1001.9 979.8
15 15.07 З 1 10 км слабый ливневой дождь 10/10 600 м
[Cb cap]
+23.5 +20.6 84 +29 +29 душно 1002.9 980.2 +30.3 0.8
18 15.07 З 2 20 км {ливн. осадки} 10/10 600 м
[Cb cap]
+23.1 +17.0 69 +28 +28 душно 1004.3 981.6
21 15.07 СЗ 1 20 км 10/10 600 м
[Sc]
+21.2 +18.0 82 +25 +25 комфорт 1004.5 981.7
00 16.07 СЗ 2 10 км слабый ливневой дождь 10/10 600 м
[Cb cap]
+19.0 +17.4 90 +21 +21 комфорт 1005.5 982.4
03 16.07 З 1 4000 м дымка {ливн. осадки} 10/10 600 м
[Cb cap]
+18.9 +17.6 92 +21 +21 комфорт 1006.3 983.2 +18.6 3
06 16.07 Ю 2 4000 м дымка {ливн. осадки} 10/10 600 м
[Cb cap]
+20.5 +18.2 87 +25 +25 комфорт 1006.1 983.2
09 16.07 Ю 3 20 км 4/0
[Ac trans]
+26.3 +15.7 52 +29 +41 жарко 1004.6 982.1
12 16.07 Ю 2 20 км 3/3 600 м
[Cu med, cong Ci fib]
+29.3 +14.5 40 +31 +40 жарко 1003.6 981.3
15 16.07 З 5-11
{14}
20 км 9/9 600 м
[Cb cap Ac trans]
+23.0 +14.0 57 +26 +27 жарко 1005.5 982.7 +29.3
18 16.07 Ю 2
{11}
20 км 8/6 600 м
[Cb cap Ac trans]
+20.1 +16.3 79 +23 +23 комфорт 1007.1 984.1
21 16.07 ЮЗ 1 20 км 3/0
[Ac trans]
+18.7 +16.0 84 +21 +21 комфорт 1007.0 983.9
00 17.07 ЮЗ 1 4000 м ясно +17.1 +16.1 94 +18 +18 1007.2 983.9
03 17.07 Ю 1 4000 м 3/0
[Cs]
+17.8 +15.8 88 +19 +20 1007.2 984.0 +16.5
06 17.07 Ю 1 20 км 4/0
[Cs]
+25.5 +15.0 52 +28 +40 жарко 1006.8 984.2
09 17.07 С 1 20 км 8/0
[Cs]
+28.2 +12.9 39 +30 +48 жарко 1005.8 983.4
12 17.07 С 1 20 км 8/0
[Cs]
+30.9 +13.2 34 +32 +44 жарко 1004.6 982.4
15 17.07 ЮВ 1 20 км 6/0
[Cs]
+29.6 +11.8 33 +30 +32 жарко 1005.1 982.8 +31.2
18 17.07 ЮЗ 1 20 км 3/0
[Ci fib]
+23.8 +16.9 65 +27 +27 жарко 1006.1 983.4
21 17.07 СЗ 2 20 км ясно +21.0 +17.0 78 +26 +26 душно 1006.6 983.7
00 18.07 З 2 20 км ясно +18.9 +15.7 82 +21 +21 комфорт 1007.9 984.7
03 18.07 штиль 0 20 км 8/3 600 м
[Cu med, cong Ac trans Ci fib]
+20.1 +15.7 76 +22 +23 комфорт 1007.6 984.5 +18.4
06 18.07 ЮВ 1 20 км 8/0
[Ac lent]
+24.6 +15.5 57 +28 +32 душно 1006.7 984.0
09 18.07 В 2 20 км 8/8 600 м
[Cu med, cong Ac cast]
+29.1 +15.0 42 +32 +35 душно 1004.8 982.5
12 18.07 В 1 20 км 8/6 600 м
[Cu med, cong Ac cast]
+31.4 +13.4 33 +32 +36 жарко 1003.2 981.0
15 18.07 В 1 20 км 6/4 600 м
[Cu med, cong Ac cast Ci sp]
+31.0 +13.1 34 +32 +33 жарко 1002.5 980.3 +32.6
18 18.07 СЗ 1 20 км 4/4 600 м
[Sc]
+25.9 +16.6 56 +29 +29 душно 1003.6 981.1
21 18.07 СВ 1 20 км 9/4 600 м
[Sc Ac lent Cc]
+23.3 +17.1 68 +28 +28 душно 1003.3 980.6
00 19.07 ЮЗ 1 20 км 4/0
[Cs]
+21.0 +18.4 85 +26 +26 душно 1003.5 980.6
03 19.07 штиль 0 4000 м дымка 1/0
[Ac lent]
+20.2 +18.7 91 +23 +25 комфорт 1003.3 980.4 +19.1
06 19.07 С 1 20 км 1/0
[Ac trans]
+27.5 +17.9 56 +32 +44 очень
душно
1002.5 980.1
09 19.07 С 2 20 км 4/0
[Ac trans]
+31.9 +15.6 37 +34 +49 душно 1001.2 979.2
12 19.07 С 1 10 км слабый ливневой дождь 10/10 600 м
[Cb cap]
+28.6 +19.8 59 +35 +35 очень
душно
1000.6 978.4

 

Местоположение метеостанции Прохладный (Кабардино-Балкария, Россия): широта 43.75 долгота 44.05 высота над уровнем моря 200 м.

В архиве по умолчанию представлена погода в Прохладный за последнюю неделю. Архивные данные за месяц целиком и за предыдущие месяцы, начиная с января 2011 года, Вы можете получить, выбрав интересующий диапазон дат из раскрывающегося списка и нажав кнопку "Ввод!".


*Определитесь, кто Вы:
робот инопланетянин человек

Внимание! Время в таблицах - всемирное. Для получения местного времени необходимо прибавить поправку, которая в Прохладный равна 3 ч.

Смотрите также архив погоды в соседних городах и на ближайших метеорологических станциях:

Погода в Нальчике (Кабардино-Балкария, Россия) (42 км)
Погода в Моздоке (Северная Осетия, Россия) (50 км)
Погода в Георгиевске (Ставропольский край, Россия) (64 км)
Погода в Зеленокумске (Ставропольский край, Россия) (77 км)
Погода в Алагире (Северная Осетия, Россия) (77 км)
Погода в Минеральных Водах (Ставропольский край, Россия) (92 км)
Погода в Назрани (Ингушетия, Россия) (93 км)
Погода в Владикавказе (Северная Осетия, Россия) (95 км)
Погода в Тырныаузе (Кабардино-Балкария, Россия) (100 км)
Погода в Рощино (Ставропольский край, Россия) (102 км)

Пояснения к столбцам:

Ветер - указаны скорость ветра в м/с - средняя за 10 мин, порывы в срок и между сроками (в фигурных скобках) и направление, откуда дует ветер: С - северный, СВ - северо-восточный, В - восточный, ЮВ - юго-восточный, Ю - южный, ЮЗ - юго-западный, З - западный, СЗ - северо-западный.
Видимость - горизонтальная дальность видимости в метрах или километрах. При видимости от 1 до 10 км при отсутствии осадков обычно наблюдается дымка, при ухудшении видимости до 1 км и менее - туман. В сухую погоду видимость может ухудшаться дымом, пылью или мглою.
Явления - указаны атмосферные явления, наблюдавшиеся в срок или в последний час перед сроком; фигурными скобками обозначены явления, наблюдавшиеся между сроками (за 1-3 часа до срока); квадратными скобками обозначены град или гололедные отложения с указанием их диаметра в мм.
Облачность - указаны через наклонную черту общая и нижняя облачность в баллах и высота нижней границы облаков в метрах; квадратными скобками обозначены формы облаков: Ci - перистые, Cs - перисто-слоистые, Cc - перисто-кучевые, Ac - высококучевые, As - высокослоистые, Sc - слоисто-кучевые, Ns - слоисто-дождевые, Cu - кучевые, Cb - кучево-дождевые. Подробнее классификацию облаков см. в Атласе облаков (PDF).
T - Температура воздуха - температура, измеренная на высоте 2 м над землей.
Td - Температура точки росы - температура, при понижении до которой содержащийся в воздухе водяной пар достигнет насыщения.
f - Относительная влажность воздуха - влажноcть воздуха, измеренная на высоте 2 м над землей.
Te - Эффективная температура - температура, которую ощущает одетый по сезону человек в тени. Характеристика душности погоды. При расчете учитывается влияние влажности воздуха и скорости ветра на теплоощущения человека.
Tes - Эффективная температура на солнце - температура, которую ощущает человек, с поправкой на солнечный нагрев. Характеристика знойности погоды. Зависит от высоты солнца над горизонтом, облачности и скорости ветра. Ночью, в пасмурную погоду, а также при ветре 12 м/с и более поправка равна нулю.
P - Атмосферное давление - приведенное к уровню моря атмосферное давление.
Po - Атмосферное давление - измеренное на уровне метеостанции атмосферное давление.
Tmin - Минимальная температура - минимум температуры воздуха на высоте 2 м над землей.
Tmax - Максимальная температура - максимум температуры воздуха на высоте 2 м над землей.
R - Количество осадков - Количество выпавших осадков за период времени, мм. При наведении курсора мыши на число - период времени, за который выпало указанное количество осадков.
R24 - Количество осадков - Количество выпавших осадков за 24 часа, мм.
S - Снежный покров - Высота снежного покрова, см. При наведении курсора мыши на число - состояние снежного покрова и степень покрытия местности в баллах.